Probability
0 0 0 0 0 0 0 0 0 0 0 0 1 1 1 1 1 0 0 0 0 0 1 2 5 5 6 6 5 3 2 1 1 0 0 0 0 0 0 0 0 0 0 0
0 0 0 0 0 0 0 0 0 0 0 0 1 2 2 1 0 0 0 0 0 1 2 3 6 7 7 7 5 3 3 2 2 1 0 0 0 0 0 0 0 0 0 0
0 0 0 0 0 0 0 0 0 0 0 0 1 2 1 0 0 0 0 0 1 1 2 5 8 10 9 7 4 3 3 3 2 1 0 0 0 0 0 0 0 0 0 0
0 0 0 0 0 0 0 0 0 0 0 0 0 0 0 0 0 0 0 0 1 1 3 6 10 12 11 7 5 3 3 3 3 1 0 0 0 0 0 0 0 0 0 0
0 0 0 0 0 0 0 0 0 0 0 0 0 0 0 0 1 0 0 0 0 1 3 7 11 14 14 12 8 5 4 3 3 2 1 0 0 1 1 0 0 0 0 0
0 0 0 0 0 0 0 0 0 0 0 0 0 0 0 0 0 0 0 0 0 1 4 8 12 15 17 16 12 8 5 3 3 2 1 0 0 1 1 1 1 1 1 0
0 0 0 0 0 0 0 0 0 0 0 0 0 0 0 0 0 0 1 0 0 1 4 8 12 16 19 17 15 13 9 5 4 4 3 2 2 2 3 3 3 3 3 2
0 0 0 0 0 0 0 0 0 0 0 0 0 0 0 1 1 1 1 1 1 2 5 9 14 18 19 18 17 18 15 10 8 8 8 6 6 6 6 6 6 6 5 4
0 0 0 0 0 0 0 0 0 0 0 0 0 0 0 1 2 2 3 3 3 3 6 11 16 19 19 18 19 21 21 17 14 13 12 10 9 8 8 7 7 7 6 6
0 0 0 0 0 0 0 0 0 0 0 0 0 0 0 1 2 3 4 5 4 4 6 10 16 18 18 18 19 21 22 21 19 18 16 13 11 10 10 9 8 8 7 5
0 0 0 0 0 0 0 0 0 0 0 0 0 0 0 1 3 4 4 4 3 3 5 9 14 18 18 16 17 18 19 20 21 21 19 17 15 14 12 11 11 10 7 5
0 0 0 0 0 0 0 0 0 0 0 0 0 0 0 2 4 4 3 2 1 2 4 8 13 17 16 14 14 15 16 19 21 22 22 21 20 19 17 15 13 10 8 7
0 0 0 0 0 0 0 0 0 0 0 0 0 0 2 4 6 4 2 1 1 3 6 8 12 15 14 13 14 15 16 19 20 22 23 23 23 23 21 18 15 12 11 11
0 0 0 0 0 0 0 0 0 0 0 0 0 1 3 6 7 4 3 3 4 6 8 9 10 13 15 15 15 16 17 19 20 22 22 23 24 24 23 21 18 16 15 15
0 0 0 0 0 0 0 0 0 0 0 0 0 1 3 7 8 6 5 7 8 8 9 10 11 15 18 19 18 17 18 20 21 21 21 22 23 23 23 23 22 19 18 19
0 0 0 0 0 0 0 0 0 0 0 0 0 1 5 9 10 8 9 11 11 10 10 11 13 17 20 21 21 21 22 23 23 22 21 22 22 24 25 25 23 20 19 19
0 0 0 0 0 0 0 0 0 0 1 1 1 4 9 12 11 9 10 12 11 10 10 12 12 14 18 20 22 24 26 26 25 25 24 23 24 25 26 25 22 20 18 18
0 0 0 0 0 0 0 0 1 2 4 5 6 9 14 15 12 10 10 10 10 10 11 11 10 10 12 14 19 23 27 29 29 29 27 25 26 27 26 24 22 21 20 20
0 0 0 0 0 0 0 0 1 3 5 8 10 13 15 14 12 11 9 8 8 10 11 10 9 9 9 11 15 20 25 31 33 32 29 27 27 28 25 23 23 24 23 22
0 0 0 0 0 0 0 0 1 1 3 7 11 12 11 10 10 9 8 7 8 9 10 9 9 8 8 10 13 18 23 28 31 31 30 28 27 26 25 24 25 25 24 23
0 0 0 0 0 0 1 1 1 0 1 4 8 8 6 6 7 7 8 8 7 7 7 7 7 6 7 8 11 15 18 20 22 25 26 25 24 23 24 23 22 22 22 22
0 0 0 0 1 1 2 2 1 0 0 2 5 5 4 4 6 8 9 8 6 5 5 5 5 5 6 7 9 12 13 13 14 17 19 20 20 20 20 19 18 18 19 19
0 0 0 0 1 2 2 1 1 0 0 1 3 2 2 4 6 8 8 7 5 5 5 5 4 6 8 8 8 9 11 12 13 14 16 17 18 19 18 16 16 16 16 16
0 0 0 0 1 1 1 0 0 1 1 2 2 1 1 3 5 6 6 5 4 5 6 6 5 7 9 9 8 8 11 13 13 15 15 16 18 19 17 14 13 13 13 12
0 0 0 0 0 1 0 0 0 1 3 3 1 0 0 1 1 2 3 4 4 4 5 6 6 7 9 9 7 7 10 11 13 14 14 15 16 17 14 10 8 8 8 8
0 0 0 0 0 1 0 0 0 1 2 2 1 0 0 0 0 1 2 3 3 4 5 6 6 7 9 9 7 6 8 10 12 13 13 14 15 15 12 7 5 5 5 5
Wind_Speed
2 4 3 6 6 4 3 3 4 5 3 3 4 4 5 9 9 10 10 10 10 10 8 7 8 8 7 7 7 7 7 6 5 3 3 3 2 2 1 2 3 3 3 3
4 2 6 4 3 3 3 2 3 3 1 3 2 4 4 9 13 12 13 12 12 9 7 8 9 8 9 9 8 8 8 7 6 4 3 2 2 2 2 1 2 2 3 3
5 6 3 3 2 2 3 5 4 3 1 2 2 4 3 4 7 7 8 8 9 11 11 10 10 10 9 9 10 9 8 7 6 5 3 2 2 2 1 1 1 2 3 3
4 5 2 2 3 4 4 5 4 3 3 2 2 3 6 5 6 10 11 9 10 10 10 10 10 10 11 11 10 8 7 7 6 6 5 5 4 4 3 2 2 2 2 2
5 3 3 4 5 6 5 1 2 2 3 1 0 2 8 1 6 12 13 13 12 12 12 12 13 12 11 11 10 8 7 7 6 6 6 6 4 3 2 2 2 1 1 2
5 2 3 4 2 4 3 6 6 6 5 1 4 4 7 6 9 8 11 13 13 12 13 12 12 10 9 9 9 8 8 7 6 7 6 6 6 5 4 3 2 1 1 1
4 3 2 2 1 2 5 6 4 4 3 6 2 4 10 7 6 8 10 11 11 11 11 12 12 12 11 11 11 10 10 8 7 8 7 7 7 6 6 5 4 3 2 2
2 5 3 3 6 5 4 8 8 6 6 5 1 6 9 5 4 5 6 6 6 7 9 11 13 13 13 13 12 11 11 9 9 8 8 6 6 5 4 5 4 4 3 3
5 6 4 2 2 7 5 4 6 7 2 1 5 7 9 3 3 2 2 2 4 7 9 10 11 12 13 13 13 13 12 10 9 9 7 6 6 6 5 4 4 3 3 3
7 4 4 3 3 3 4 7 6 6 5 4 5 5 6 5 4 3 1 2 4 5 7 8 9 11 12 11 11 10 10 10 9 9 8 7 6 6 5 5 5 4 4 3
4 4 4 2 2 3 3 4 5 4 5 6 4 8 7 8 6 5 5 4 4 4 6 8 8 9 9 8 9 9 9 8 7 8 7 6 6 6 5 5 5 4 3 4
2 5 2 5 4 2 4 6 7 5 4 4 4 10 5 5 5 4 4 3 2 3 4 6 7 7 7 8 9 9 9 9 8 7 7 6 6 5 5 5 4 4 4 4
3 5 2 6 5 3 2 2 4 5 4 4 5 9 4 1 2 3 4 3 2 2 3 4 6 7 8 8 8 9 9 9 8 7 7 7 6 6 6 5 4 4 4 3
4 4 6 8 7 3 2 3 3 5 4 5 9 9 7 5 4 4 3 3 2 2 3 4 5 7 7 8 8 8 8 8 8 8 7 7 7 7 6 5 5 5 4 4
4 2 3 5 5 4 5 6 6 6 9 9 10 10 11 8 7 6 4 2 2 2 3 4 5 5 6 7 7 7 7 7 7 7 7 7 6 6 6 5 5 5 5 5
3 2 0 3 3 4 6 7 7 7 6 7 7 10 7 4 2 3 4 4 3 3 3 4 4 4 6 7 7 7 7 7 7 7 7 6 6 6 6 6 5 5 5 4
1 3 2 3 4 2 6 5 5 5 4 5 8 9 3 2 4 6 6 5 4 4 3 3 4 4 5 6 7 8 7 7 8 8 7 6 6 6 6 6 5 5 5 4
5 4 3 1 1 6 8 2 2 3 4 3 5 5 3 4 3 2 3 5 4 4 3 3 2 2 3 3 4 5 6 6 7 7 7 6 6 6 6 5 6 5 4 4
5 7 4 3 3 7 7 2 1 1 4 3 3 3 2 1 2 2 2 2 4 4 3 4 4 3 2 2 3 5 5 5 5 6 6 6 6 6 5 6 5 4 4 4
4 4 5 3 3 7 7 4 2 1 4 3 2 2 2 1 1 5 2 1 1 1 1 2 3 3 3 2 3 4 5 4 4 5 5 5 5 6 6 6 4 3 4 4
3 2 3 4 4 8 6 5 2 2 6 4 2 3 2 3 5 3 1 1 1 1 2 4 5 4 2 2 3 3 3 3 4 3 3 3 4 5 5 4 3 3 3 3
4 3 3 4 4 8 3 1 2 5 3 2 3 3 2 1 1 1 1 1 2 2 2 4 4 3 2 3 4 3 2 2 1 2 3 3 3 3 4 4 4 4 4 3
5 6 5 7 7 6 3 4 4 3 3 3 2 3 2 1 0 0 1 1 2 2 2 3 4 4 2 2 3 3 2 2 2 2 2 3 3 3 3 4 4 3 3 3
3 2 2 4 6 6 6 4 3 3 3 3 3 3 2 2 1 1 1 1 1 2 2 2 4 4 2 1 1 1 1 2 3 3 2 3 3 3 3 3 3 3 3 3
4 1 2 5 7 6 5 4 4 4 3 3 4 3 2 3 2 2 2 2 2 2 2 2 4 4 3 2 1 1 2 3 3 3 2 3 3 3 3 3 2 3 2 3
5 6 5 7 7 5 7 6 4 3 3 3 3 2 2 3 3 2 2 1 2 2 2 2 3 3 2 2 2 1 2 4 4 3 2 2 3 3 3 3 3 4 3 3
Wind_Direction
83 87 186 212 199 188 182 195 245 253 218 160 207 229 206 183 189 192 192 194 201 208 205 190 184 182 174 174 176 181 181 180 166 161 165 166 185 183 177 184 185 181 178 172
50 249 227 202 186 173 186 216 251 279 200 164 224 261 224 194 204 201 199 201 202 202 197 190 184 181 182 183 183 185 186 182 180 181 175 172 162 169 179 179 173 184 183 179
190 231 191 168 189 181 217 199 215 208 18 37 87 317 242 222 216 218 216 208 203 202 201 194 188 187 186 189 191 193 192 186 182 172 146 126 107 95 126 164 190 196 181 178
229 248 197 194 217 173 250 225 195 170 123 272 145 263 271 220 216 219 221 214 209 208 202 195 190 190 191 195 193 192 187 185 182 169 164 161 166 179 191 184 184 179 172 177
238 226 198 220 225 177 218 183 145 135 142 70 349 195 280 203 227 230 223 219 216 207 200 195 194 194 193 190 187 186 182 185 180 172 173 171 177 183 162 146 153 169 171 186
239 246 208 212 216 165 143 69 55 51 75 250 225 183 267 226 219 228 222 221 218 208 203 198 195 188 186 182 181 179 179 187 182 176 177 178 177 171 158 164 171 180 181 199
310 302 262 160 75 43 97 92 37 358 4 248 236 196 247 247 230 222 224 223 219 207 200 195 190 186 184 183 184 181 180 187 184 180 185 187 183 178 181 183 187 187 198 213
210 282 253 196 180 184 174 142 159 194 219 264 259 227 252 264 255 231 227 221 210 203 197 195 192 187 185 186 185 182 184 188 186 186 191 189 185 187 192 190 186 193 204 216
181 252 281 245 198 151 150 180 167 141 168 244 268 278 299 294 304 283 249 206 205 202 196 192 189 186 183 185 187 185 184 186 187 188 187 188 189 191 191 186 186 193 202 206
161 235 284 283 85 43 140 142 105 126 155 234 275 262 247 262 264 277 268 231 226 202 192 188 187 187 186 186 183 179 182 186 187 188 191 192 191 192 189 182 191 197 202 201
138 177 296 7 158 184 108 104 110 123 155 165 240 263 227 217 220 225 236 231 215 197 194 189 188 186 181 174 170 173 176 178 183 186 185 183 184 185 182 187 194 195 194 190
139 128 246 266 267 216 163 163 147 158 220 185 194 261 266 222 222 221 238 242 227 198 193 181 170 167 167 170 170 171 175 183 188 183 178 181 178 174 180 189 192 188 190 191
130 113 51 338 339 6 89 145 148 132 129 169 195 261 298 284 247 234 232 240 232 199 173 157 157 165 172 173 174 174 179 187 185 176 177 179 181 180 188 194 190 188 192 193
109 120 169 202 221 222 232 217 176 139 166 211 224 248 279 271 251 247 243 235 213 180 165 162 167 175 177 177 177 178 185 183 177 174 180 186 190 190 193 193 190 191 190 191
95 145 213 234 240 228 235 239 218 208 199 203 232 234 247 236 226 226 221 216 171 156 167 179 182 179 176 179 183 182 179 174 171 173 184 194 193 187 187 189 192 193 194 198
66 142 206 282 273 250 255 255 239 235 222 229 244 255 252 241 214 212 206 201 196 203 201 194 188 179 182 186 187 185 180 173 168 176 189 190 188 188 191 192 188 191 197 198
83 132 131 262 300 341 267 240 225 232 222 206 228 248 262 228 211 210 206 202 202 206 210 203 193 190 191 191 185 183 183 174 173 179 186 187 190 193 196 195 189 196 199 194
150 125 142 200 50 236 245 257 225 227 257 256 258 264 235 227 222 216 207 190 189 193 193 194 189 190 193 181 175 173 168 170 175 178 188 190 191 196 194 191 199 203 198 198
164 145 140 144 210 271 290 282 189 206 279 303 294 303 329 17 36 331 285 206 194 194 182 178 172 169 158 146 155 157 162 166 177 188 194 196 193 194 192 195 200 199 189 197
74 108 126 149 188 234 251 289 296 111 274 323 345 309 283 71 226 260 277 251 202 161 153 146 128 111 115 132 132 142 153 158 187 201 201 196 191 192 197 198 193 186 185 198
52 68 145 182 218 256 263 297 3 179 253 299 296 279 232 219 232 245 249 276 185 144 144 128 116 119 133 137 121 137 150 177 201 194 181 178 183 185 187 184 177 170 176 179
179 166 185 166 202 250 282 5 181 233 269 282 278 273 268 263 268 226 200 181 137 107 119 128 127 127 125 132 129 141 173 197 169 156 159 168 172 178 171 160 162 161 162 166
201 194 191 195 218 248 271 246 258 238 271 280 265 285 238 194 191 176 190 166 148 135 129 134 136 127 113 127 139 159 201 163 139 142 163 168 161 161 159 161 161 157 154 163
262 176 182 258 266 275 283 282 286 270 269 279 277 282 236 201 197 184 169 144 132 122 128 130 128 125 126 130 133 168 163 136 135 148 161 156 150 145 145 153 158 161 166 167
240 204 229 260 275 295 298 293 297 308 318 329 325 304 228 172 174 178 177 167 156 135 131 140 148 154 167 156 142 137 136 135 138 143 144 144 148 147 141 137 145 159 169 174
218 200 207 241 248 247 274 288 292 293 293 290 301 301 266 179 175 175 187 185 150 143 145 146 147 163 175 164 156 151 149 147 146 146 153 154 143 137 134 125 93 60 82 103